Weather History for KGPI - December, 2014

Change the Weather History Date:

Wednesday, December 10, 2014

  Actual Average Record
Temperature  
Mean Temperature 35 °F 23 °F  
Max Temperature 40 °F 30 °F 49 °F (1939)
Min Temperature 29 °F 17 °F -14 °F (1961)
Degree Days  
Heating Degree Days 30 42  
Month to date heating degree days 413 404  
Since 1 July heating degree days 2411 2608  
Cooling Degree Days 0 0  
Month to date cooling degree days 0 0  
Year to date cooling degree days 217 147  
Moisture  
Dew Point 31 °F    
Average Humidity 93    
Maximum Humidity 100    
Minimum Humidity 85    
Precipitation  
Precipitation 0.00 in 0.05 in 0.84 in (1933)
Month to date precipitation 0.50 0.49  
Year to date precipitation 19.71 15.92  
Snow  
Snow 0.00 in - - ()
Month to date snowfall 6.5  
Year to date snowfall 55.0  
Since 1 July snowfall 16.8  
Snow Depth 2.00 in    
Sea Level Pressure  
Sea Level Pressure 29.87 in    
Wind  
Wind Speed 2 mph (North)    
Max Wind Speed 9 mph    
Max Gust Speed 10 mph    
Visibility 4 miles    
Events Fog    
T = Trace of Precipitation, MM = Missing Value Source: NWS Daily Summary

Daily Weather History Graph

Daily Weather History Graph

Search for Another Location

Airport or City:

Trip Planner

Search our weather history database for the weather conditions in past years. The results will help you decide how hot, cold, wet, or windy it might be!

Date:

Astronomy

Dec. 10, 2014 Rise Set
Actual Time 8:17 AM MST 4:42 PM MST
Civil Twilight 7:40 AM MST 5:19 PM MST
Nautical Twilight 7:01 AM MST 5:58 PM MST
Astronomical Twilight 6:23 AM MST 6:36 PM MST
Moon 9:14 PM MST (12/10) 10:57 AM MST (12/10)
Length of Visible Light 9h 38m
Length of Day
8h 25m
Waning Gibbous, 83% of the Moon is Illuminated
Dec 10
Waning Gibbous
Dec 14
Last Quarter
Dec 21
New
Dec 28
First Quarter
Jan 4
Full

Hourly Weather History & Observations

Time (MST) Temp. Windchill Dew Point Humidity Pressure Visibility Wind Dir Wind Speed Gust Speed Precip Events Conditions
12:55 AM 33.1 °F - 33.1 °F 100% 30.12 in - Calm Calm - 0.00 in   Overcast
1:55 AM 33.1 °F - 32.0 °F 96% 30.11 in 3.0 mi Calm Calm - N/A   Overcast
2:32 AM 32.0 °F 28.7 °F 30.9 °F 96% 30.01 in 2.5 mi East 3.5 mph - N/A   Mostly Cloudy
2:55 AM 30.9 °F - 30.9 °F 100% 30.09 in 1.5 mi Calm Calm - N/A   Partly Cloudy
3:07 AM 32.0 °F 28.7 °F 30.9 °F 96% 30.00 in 3.0 mi East 3.5 mph - N/A   Mostly Cloudy
3:19 AM 30.9 °F 26.2 °F 30.0 °F 96% 30.00 in 2.0 mi ESE 4.6 mph - N/A   Mostly Cloudy
3:28 AM 30.9 °F - 30.0 °F 96% 29.99 in 1.8 mi Calm Calm - N/A   Mostly Cloudy
3:38 AM 30.0 °F - 30.0 °F 100% 29.99 in 0.8 mi Calm Calm - N/A   Mostly Cloudy
3:51 AM 30.2 °F 26.7 °F 30.2 °F 100% 29.99 in 0.2 mi West 3.5 mph - N/A Fog Light Freezing Fog
3:55 AM 30.0 °F 25.2 °F 28.9 °F 96% 30.06 in 0.2 mi West 4.6 mph - N/A Fog Light Freezing Fog
4:17 AM 30.0 °F - 30.0 °F 100% 29.98 in 0.5 mi Calm Calm - N/A Fog Light Freezing Fog
4:25 AM 30.0 °F 25.2 °F 30.0 °F 100% 29.98 in 0.5 mi West 4.6 mph - N/A Fog Light Freezing Fog
4:36 AM 30.9 °F - 30.0 °F 96% 29.98 in 0.5 mi Calm Calm - N/A Fog Light Freezing Fog
4:55 AM 28.9 °F 23.9 °F 28.9 °F 100% 30.06 in 0.5 mi SSE 4.6 mph - N/A Fog Light Freezing Fog
5:08 AM 28.9 °F 22.8 °F 28.0 °F 96% 29.98 in 0.2 mi NE 5.8 mph - N/A Fog Light Freezing Fog
5:17 AM 30.0 °F - 28.9 °F 96% 29.98 in 0.2 mi Calm Calm - N/A Fog Light Freezing Fog
5:23 AM 30.0 °F - 28.9 °F 96% 29.97 in 0.5 mi Calm Calm - N/A Fog Light Freezing Fog
5:37 AM 30.0 °F - 30.0 °F 100% 29.96 in 0.8 mi Calm Calm - N/A   Overcast
5:44 AM 30.0 °F - 30.0 °F 100% 29.96 in 1.5 mi Calm Calm - N/A   Overcast
5:53 AM 30.2 °F - 28.4 °F 93% 29.96 in 2.5 mi Calm Calm - N/A   Overcast
5:55 AM 30.0 °F - 30.0 °F 100% 30.04 in 2.5 mi Calm Calm - N/A   Overcast
6:04 AM 30.0 °F - 30.0 °F 100% 29.94 in 3.0 mi Calm Calm - N/A   Overcast
6:55 AM 30.9 °F - 30.9 °F 100% 30.04 in 5.0 mi Calm Calm - N/A   Overcast
7:55 AM 30.9 °F 27.5 °F 30.9 °F 100% 30.01 in 6.0 mi West 3.5 mph - N/A   Overcast
8:55 AM 32.0 °F 28.7 °F 30.9 °F 96% 29.99 in 5.0 mi East 3.5 mph - N/A   Overcast
9:55 AM 32.0 °F - 32.0 °F 100% 29.99 in 10.0 mi Calm Calm - N/A   Partly Cloudy
10:55 AM 35.1 °F - 32.0 °F 89% 29.97 in 10.0 mi Calm Calm - N/A   Clear
11:55 AM 36.0 °F - 33.1 °F 89% 29.93 in 10.0 mi Calm Calm - N/A   Clear
12:55 PM 37.0 °F - 35.1 °F 93% 29.91 in 10.0 mi Calm Calm - N/A   Clear
1:55 PM 37.9 °F 35.5 °F 35.1 °F 89% 29.87 in 10.0 mi NE 3.5 mph - N/A   Clear
2:55 PM 39.0 °F 36.8 °F 36.0 °F 89% 29.86 in 10.0 mi West 3.5 mph - N/A   Clear
3:55 PM 36.0 °F - 35.1 °F 97% 29.86 in 10.0 mi Calm Calm - N/A   Clear
4:55 PM 35.1 °F - 34.0 °F 96% 29.83 in 10.0 mi Calm Calm - N/A   Clear
5:33 PM 33.1 °F 27.7 °F 32.0 °F 96% 29.74 in 6.0 mi WNW 5.8 mph - N/A   Partly Cloudy
5:55 PM 32.0 °F 27.5 °F 32.0 °F 100% 29.81 in 6.0 mi West 4.6 mph - N/A   Clear
6:02 PM 32.0 °F 28.7 °F 30.9 °F 96% 29.72 in 6.0 mi Variable 3.5 mph - N/A   Mostly Cloudy
6:16 PM 33.1 °F - 33.1 °F 100% 29.70 in 6.0 mi Calm Calm - N/A   Scattered Clouds
6:55 PM 33.1 °F - 32.0 °F 96% 29.75 in 6.0 mi Calm Calm - N/A   Mostly Cloudy
6:57 PM 33.1 °F - 32.0 °F 96% 29.69 in 0.5 mi Calm Calm - N/A Fog Fog
7:37 PM 30.9 °F 27.5 °F 30.9 °F 100% 29.69 in 1.5 mi East 3.5 mph - N/A   Scattered Clouds
7:41 PM 30.9 °F 27.5 °F 30.9 °F 100% 29.68 in 1.0 mi ENE 3.5 mph - N/A   Mist
7:48 PM 30.9 °F - 30.9 °F 100% 29.69 in 0.8 mi Calm Calm - N/A   Clear
7:55 PM 30.0 °F 26.5 °F 30.0 °F 100% 29.76 in 0.5 mi ENE 3.5 mph - N/A Fog Light Freezing Fog
7:59 PM 30.0 °F 24.1 °F 28.9 °F 96% 29.67 in 6.0 mi East 5.8 mph - N/A   Scattered Clouds
8:55 PM 32.0 °F 26.4 °F 32.0 °F 100% 29.72 in 6.0 mi West 5.8 mph - N/A   Clear
9:27 PM 30.0 °F 25.2 °F 30.0 °F 100% 29.63 in 2.0 mi East 4.6 mph - N/A   Clear
9:38 PM 30.0 °F 25.2 °F 30.0 °F 100% 29.63 in 3.0 mi West 4.6 mph - N/A   Clear
9:44 PM 30.0 °F 25.2 °F 28.9 °F 96% 29.63 in 1.8 mi West 4.6 mph - N/A   Partly Cloudy
9:49 PM 30.2 °F 25.4 °F 30.2 °F 100% 29.63 in 1.0 mi WSW 4.6 mph - N/A   Mist
9:55 PM 30.9 °F 26.2 °F 30.0 °F 96% 29.70 in 1.0 mi Variable 4.6 mph - N/A   Mist
9:57 PM 30.9 °F 25.2 °F 30.0 °F 96% 29.63 in 6.0 mi Variable 5.8 mph - N/A   Scattered Clouds
10:55 PM 30.0 °F - 30.0 °F 100% 29.70 in 6.0 mi Calm Calm - N/A   Scattered Clouds
11:55 PM 30.9 °F - 28.9 °F 92% 29.70 in 8.0 mi Calm Calm - N/A   Mostly Cloudy